Regional Weather Roundup
Issued by NWS

Home | Current Version | Previous Version | Text Only | Print | Product List | Glossary Off
Versions: 1 2 3 4 5 6 7 8 9 10 11 12 13 14 15 16 17 18 19 20 21 22 23 24 25 26 27 28 29 30 31 32 33 34 35 36 37 38 39 40 41 42 43 44 45 46 47 48 49 50

000
ASUS43 KLSX 170907
RWRMO

WEATHER SUMMARY FOR MISSOURI
NATIONAL WEATHER SERVICE SPRINGFIELD MO
400 AM CDT WED SEP 17 2014

NOTE: "FAIR" INDICATES FEW OR NO CLOUDS BELOW 12,000 FEET WITH NO
       SIGNIFICANT WEATHER AND/OR OBSTRUCTIONS TO VISIBILITY.
       CURRENT SKY AND/OR WEATHER CONDITIONS ARE NOT AVAILABLE FOR
       CHILLICOTHE AND FARMINGTON.

MOZ001>031-035>038-043-044-053-054-171000-
...NORTHERN AND WESTERN MISSOURI...

CITY           SKY/WX    TMP DP  RH WIND       PRES   REMARKS
KANSAS CTY INT CLOUDY    64  59  83 SE6       29.96F
KANSAS C DTWN  CLOUDY    66  59  78 E3        29.96F
LEE`S SUMMIT   MOCLDY    63  59  87 S6        29.98F
ST JOSEPH      CLOUDY    63  58  83 S3        29.96F
CHILLICOTHE      N/A     60  55  83 S3        30.00F
KIRKSVILLE     CLOUDY    54  52  93 SE5       30.02F

$$
MOZ066>068-077>081-088>096-101>105-171000-
...SOUTHWEST MISSOURI...

CITY           SKY/WX    TMP DP  RH WIND       PRES   REMARKS
SPRINGFIELD    CLOUDY    64  63  96 S9        30.00F FOG
JOPLIN         CLOUDY    67  66  97 S8        29.98F

$$
MOZ032>034-039>042-045>050-055>058-069>072-171000-
...CENTRAL MISSOURI...

CITY           SKY/WX    TMP DP  RH WIND       PRES   REMARKS
COLUMBIA         N/A     57  54  89 SE7       30.02F
JEFFERSON CITY CLOUDY    57  55  93 CALM      30.03F
ROLLA          CLOUDY    56  54  93 SE12      30.02F
SEDALIA        CLOUDY    63  59  87 SE5       30.00F
WHITEMAN AFB   CLOUDY    62  60  93 S6        29.97F
OSAGE BEACH    CLOUDY    61  55  82 S5        30.02F

$$
MOZ051-052-059>065-171000-
...EAST CENTRAL MISSOURI...

CITY           SKY/WX    TMP DP  RH WIND       PRES   REMARKS
ST LOUIS INTL  PTCLDY    54  50  86 S5        30.07F
SPIRIT OF STL  FOG       47  47 100 CALM      30.06F VSB 1/4
ST CHARLES     FOG       47  46  97 CALM      30.06F VSB 3/4

$$
MOZ072>076-082>087-097>100-106>115-171000-
...SOUTH CENTRAL AND SOUTHEAST MISSOURI...

CITY           SKY/WX    TMP DP  RH WIND       PRES   REMARKS
CAPE GIRARDEAU FOG       48  48 100 CALM      30.08S VSB 1/4
FARMINGTON     CLEAR     48  46  93 CALM      30.09S
POPLAR BLUFF   CLOUDY    55  51  86 CALM      30.05F
WEST PLAINS    CLOUDY    63  58  83 S5        30.06F

$$


USA.gov is the U.S. government's official web portal to all federal, state and local government web resources and services.